This demonstration page uses our WeatherBlox Daily Observations layout. Learn more.

Left ArrowRight Arrow

34.74481, -87.66753

Hourly Observations for July 22, 2022

Temp ( °F °C ) Dew Point ( °F °C ) Humidity (%) Winds ( mph kmh ) Pressure ( in mb ) Visibility ( mi km ) Precip ( " mm )
12:53 am 00:53 Clear 79 26.1 70 21.1 74 74 W 6 9 29.93 1014 10 16 0.00 0.00
1:53 am 01:53 Clear 77 25 70 21.1 79 79 Calm 29.96 1014 10 16 0.00 0.00
2:53 am 02:53 Clear 75 23.9 71 21.7 88 88 SSE 5 7 29.96 1015 10 16 0.00 0.00
3:53 am 03:53 Clear 73 22.8 70 21.1 90 90 Calm 29.94 1014 10 16 0.00 0.00
4:53 am 04:53 Clear 73 22.8 70 21.1 90 90 Calm 29.96 1015 10 16 0.00 0.00
5:53 am 05:53 Clear 71 21.7 69 20.6 94 94 SE 7 11 29.99 1016 10 16 0.00 0.00
6:53 am 06:53 Sunny 74 23.3 71 21.7 91 91 Calm 29.99 1016 10 16 0.00 0.00
7:53 am 07:53 Sunny 77 25 70 21.1 79 79 Calm 30.01 1016 10 16 0.00 0.00
8:53 am 08:53 Sunny 81 27.2 71 21.7 72 72 W 7 11 30.02 1017 10 16 0.00 0.00
9:53 am 09:53 Sunny 85 29.4 73 22.8 68 68 VRB 3 6 30.01 1016 10 16 0.00 0.00
10:53 am 10:53 Sunny 88 31.1 73 22.8 61 61 VRB 3 6 30.04 1017 10 16 0.00 0.00
11:53 am 11:53 Sunny 90 32.2 74 23.3 59 59 VRB 6 9 30.03 1017 10 16 0.00 0.00
12:53 pm 12:53 Sunny 91 32.8 74 23.3 57 57 S 5 7 30.02 1017 10 16 0.00 0.00
1:53 pm 13:53 Mostly Sunny 93 33.9 75 23.9 56 56 SSW 8 13 30.01 1016 10 16 0.00 0.00
2:53 pm 14:53 Sunny 93 33.9 75 23.9 56 56 S 8 13 30.00 1016 10 16 0.00 0.00
3:53 pm 15:53 Mostly Sunny 93 33.9 73 22.8 52 52 WSW 6 9 30.00 1016 10 16 0.00 0.00
4:53 pm 16:53 Sunny 90 32.2 77 25 66 66 SW 10 17 30.00 1016 10 16 0.00 0.00
5:53 pm 17:53 Sunny 88 31.1 76 24.4 68 68 SW 6 9 29.99 1016 10 16 0.00 0.00
6:53 pm 18:53 Sunny 86 30 76 24.4 72 72 SSW 8 13 30.01 1016 10 16 0.00 0.00
7:53 pm 19:53 Sunny 85 29.4 76 24.4 75 75 SSW 7 11 30.03 1017 10 16 0.00 0.00
8:53 pm 20:53 Clear 82 27.8 76 24.4 82 82 S 3 6 30.05 1018 10 16 0.00 0.00
9:53 pm 21:53 Clear 80 26.7 76 24.4 87 87 S 6 9 30.07 1018 10 16 0.00 0.00
10:53 pm 22:53 Clear 79 26.1 74 23.3 85 85 SSW 5 7 30.07 1018 10 16 0.00 0.00
11:53 pm 23:53 Clear 79 26.1 72 22.2 79 79 S 3 6 30.06 1018 10 16 0.00 0.00

Powered by AerisWeather